Time,TemperatureF,DewpointF,PressureIn,WindDirection,WindDirectionDegrees,WindSpeedMPH,WindSpeedGustMPH,Humidity,HourlyPrecipIn,Conditions,Clouds,dailyrainin,SoftwareType,DateUTC
2013-04-23 01:22:00,57.0,51.0,29.93,South,174,5.0,5.0,79,0.00,,,0.00,,2013-04-23 08:22:00,
2013-04-23 01:32:00,57.0,51.0,29.93,South,174,5.0,5.0,79,0.00,,,0.00,,2013-04-23 08:32:00,
2013-04-23 01:42:00,57.0,51.0,29.93,South,174,5.0,5.0,79,0.00,,,0.00,,2013-04-23 08:42:00,
2013-04-23 01:52:00,57.0,51.0,29.93,South,175,2.0,2.0,79,0.00,,,0.00,,2013-04-23 08:52:00,
2013-04-23 02:01:00,57.0,51.0,29.93,South,175,2.0,2.0,79,0.00,,,0.00,,2013-04-23 09:01:00,
2013-04-23 02:11:00,57.0,51.0,29.93,South,175,2.0,2.0,79,0.00,,,0.00,,2013-04-23 09:11:00,
2013-04-23 02:21:00,57.0,51.0,29.93,South,177,4.0,4.0,80,0.00,,,0.00,,2013-04-23 09:21:00,
2013-04-23 02:32:00,57.0,51.0,29.93,South,177,4.0,4.0,80,0.00,,,0.00,,2013-04-23 09:32:00,
2013-04-23 02:43:00,57.0,51.0,29.93,South,177,4.0,4.0,80,0.00,,,0.00,,2013-04-23 09:43:00,
2013-04-23 02:52:00,57.0,51.0,29.91,South,178,0.0,0.0,79,0.00,,,0.00,,2013-04-23 09:52:00,
2013-04-23 03:02:00,57.0,51.0,29.91,South,178,0.0,0.0,79,0.00,,,0.00,,2013-04-23 10:02:00,
2013-04-23 03:12:00,57.0,51.0,29.91,South,178,0.0,0.0,79,0.00,,,0.00,,2013-04-23 10:12:00,
2013-04-23 03:22:00,57.0,51.0,29.91,South,178,0.0,0.0,79,0.00,,,0.00,,2013-04-23 10:22:00,
2013-04-23 03:32:00,57.0,51.0,29.91,South,178,0.0,0.0,79,0.00,,,0.00,,2013-04-23 10:32:00,
2013-04-23 04:12:00,57.0,50.0,29.91,South,181,3.0,3.0,78,0.00,,,0.00,,2013-04-23 11:12:00,
2013-04-23 04:22:00,57.0,50.0,29.91,South,181,3.0,3.0,78,0.00,,,0.00,,2013-04-23 11:22:00,
2013-04-23 04:32:00,57.0,50.0,29.91,South,181,3.0,3.0,78,0.00,,,0.00,,2013-04-23 11:32:00,
2013-04-23 04:43:00,57.0,50.0,29.91,South,181,3.0,3.0,78,0.00,,,0.00,,2013-04-23 11:43:00,
2013-04-23 04:52:00,57.0,50.0,29.91,South,181,3.0,3.0,78,0.00,,,0.00,,2013-04-23 11:52:00,
2013-04-23 05:01:00,57.0,50.0,29.91,South,181,3.0,3.0,78,0.00,,,0.00,,2013-04-23 12:01:00,
2013-04-23 05:52:00,57.0,50.0,29.91,South,182,5.0,5.0,77,0.00,,,0.00,,2013-04-23 12:52:00,
2013-04-23 06:01:00,57.0,50.0,29.91,South,182,5.0,5.0,77,0.00,,,0.00,,2013-04-23 13:01:00,
2013-04-23 06:11:00,57.0,50.0,29.91,South,182,5.0,5.0,77,0.00,,,0.00,,2013-04-23 13:11:00,
2013-04-23 06:21:00,57.0,50.0,29.91,South,182,5.0,5.0,77,0.00,,,0.00,,2013-04-23 13:21:00,
2013-04-23 06:31:00,57.0,50.0,29.91,South,182,5.0,5.0,77,0.00,,,0.00,,2013-04-23 13:31:00,
2013-04-23 06:52:00,57.0,49.0,29.93,South,184,5.0,5.0,74,0.00,,,0.00,,2013-04-23 13:52:00,
2013-04-23 07:01:00,57.0,49.0,29.93,South,184,5.0,5.0,74,0.00,,,0.00,,2013-04-23 14:01:00,
2013-04-23 07:11:00,57.0,49.0,29.93,South,184,5.0,5.0,74,0.00,,,0.00,,2013-04-23 14:11:00,
2013-04-23 07:22:00,58.0,49.0,29.94,South,181,4.0,4.0,73,0.00,,,0.00,,2013-04-23 14:22:00,
2013-04-23 07:31:00,58.0,49.0,29.94,South,181,4.0,4.0,73,0.00,,,0.00,,2013-04-23 14:31:00,
2013-04-23 07:42:00,58.0,49.0,29.94,South,181,4.0,4.0,73,0.00,,,0.00,,2013-04-23 14:42:00,
2013-04-23 07:52:00,58.0,49.0,29.95,South,177,2.0,2.0,72,0.00,,,0.00,,2013-04-23 14:52:00,
2013-04-23 08:01:00,58.0,49.0,29.95,South,177,2.0,2.0,72,0.00,,,0.00,,2013-04-23 15:01:00,
2013-04-23 08:12:00,58.0,49.0,29.95,South,177,2.0,2.0,72,0.00,,,0.00,,2013-04-23 15:12:00,
2013-04-23 08:21:00,59.0,50.0,29.96,South,177,5.0,5.0,71,0.00,,,0.00,,2013-04-23 15:21:00,
2013-04-23 08:32:00,59.0,50.0,29.96,South,177,5.0,5.0,71,0.00,,,0.00,,2013-04-23 15:32:00,
2013-04-23 08:43:00,59.0,50.0,29.96,South,177,5.0,5.0,71,0.00,,,0.00,,2013-04-23 15:43:00,
2013-04-23 08:53:00,59.0,50.0,29.96,South,175,3.0,3.0,71,0.00,,,0.00,,2013-04-23 15:53:00,
2013-04-23 09:02:00,59.0,50.0,29.96,South,175,3.0,3.0,71,0.00,,,0.00,,2013-04-23 16:02:00,
2013-04-23 09:12:00,59.0,50.0,29.96,South,175,3.0,3.0,71,0.00,,,0.00,,2013-04-23 16:12:00,
2013-04-23 09:23:00,60.0,50.0,29.96,South,175,2.0,2.0,70,0.00,,,0.00,,2013-04-23 16:23:00,
2013-04-23 09:33:00,60.0,50.0,29.96,South,175,2.0,2.0,70,0.00,,,0.00,,2013-04-23 16:33:00,
2013-04-23 09:43:00,60.0,50.0,29.96,South,175,2.0,2.0,70,0.00,,,0.00,,2013-04-23 16:43:00,
2013-04-23 09:52:00,61.0,50.0,29.97,South,175,3.0,3.0,68,0.00,,,0.00,,2013-04-23 16:52:00,
2013-04-23 10:02:00,61.0,50.0,29.97,South,175,3.0,3.0,68,0.00,,,0.00,,2013-04-23 17:02:00,
2013-04-23 10:11:00,61.0,50.0,29.97,South,175,3.0,3.0,68,0.00,,,0.00,,2013-04-23 17:11:00,
2013-04-23 10:22:00,61.0,50.0,29.97,South,175,3.0,3.0,68,0.00,,,0.00,,2013-04-23 17:22:00,
2013-04-23 10:32:00,61.0,50.0,29.97,South,175,3.0,3.0,68,0.00,,,0.00,,2013-04-23 17:32:00,
2013-04-23 11:22:00,65.0,51.0,29.97,South,177,4.0,4.0,61,0.00,,,0.00,,2013-04-23 18:22:00,
2013-04-23 11:32:00,65.0,51.0,29.97,South,177,4.0,4.0,61,0.00,,,0.00,,2013-04-23 18:32:00,
2013-04-23 11:42:00,65.0,51.0,29.97,South,177,4.0,4.0,61,0.00,,,0.00,,2013-04-23 18:42:00,
2013-04-23 11:52:00,65.0,51.0,29.97,SSE,166,6.0,6.0,61,0.00,,,0.00,,2013-04-23 18:52:00,
2013-04-23 12:02:00,65.0,51.0,29.97,SSE,166,6.0,6.0,61,0.00,,,0.00,,2013-04-23 19:02:00,
2013-04-23 12:11:00,65.0,51.0,29.97,SSE,166,6.0,6.0,61,0.00,,,0.00,,2013-04-23 19:11:00,
2013-04-23 12:21:00,65.0,51.0,29.96,SSW,200,3.0,3.0,60,0.00,,,0.00,,2013-04-23 19:21:00,
2013-04-23 12:32:00,65.0,51.0,29.96,SSW,200,3.0,3.0,60,0.00,,,0.00,,2013-04-23 19:32:00,
2013-04-23 12:42:00,65.0,51.0,29.96,SSW,200,3.0,3.0,60,0.00,,,0.00,,2013-04-23 19:42:00,
2013-04-23 12:52:00,65.0,51.0,29.96,SSW,200,3.0,3.0,60,0.00,,,0.00,,2013-04-23 19:52:00,
2013-04-23 13:01:00,65.0,51.0,29.96,SSW,200,3.0,3.0,60,0.00,,,0.00,,2013-04-23 20:01:00,
2013-04-23 13:22:00,67.0,52.0,29.94,SSW,207,10.0,10.0,58,0.00,,,0.00,,2013-04-23 20:22:00,
2013-04-23 13:32:00,67.0,52.0,29.94,SSW,207,10.0,10.0,58,0.00,,,0.00,,2013-04-23 20:32:00,
2013-04-23 13:42:00,67.0,52.0,29.94,SSW,207,10.0,10.0,58,0.00,,,0.00,,2013-04-23 20:42:00,
2013-04-23 13:52:00,67.0,52.0,29.93,SW,233,7.0,7.0,58,0.00,,,0.00,,2013-04-23 20:52:00,
2013-04-23 14:01:00,67.0,52.0,29.93,SW,233,7.0,7.0,58,0.00,,,0.00,,2013-04-23 21:01:00,
2013-04-23 14:11:00,67.0,52.0,29.93,SW,233,7.0,7.0,58,0.00,,,0.00,,2013-04-23 21:11:00,
2013-04-23 14:21:00,67.0,52.0,29.93,SW,233,7.0,7.0,58,0.00,,,0.00,,2013-04-23 21:21:00,
2013-04-23 16:42:00,66.0,52.0,29.89,WSW,239,7.0,7.0,61,0.00,,,0.00,,2013-04-23 23:42:00,
2013-04-23 16:52:00,66.0,52.0,29.89,WSW,239,7.0,7.0,61,0.00,,,0.00,,2013-04-23 23:52:00,
2013-04-23 17:01:00,66.0,52.0,29.89,WSW,239,7.0,7.0,61,0.00,,,0.00,,2013-04-24 00:01:00,
2013-04-23 17:11:00,66.0,52.0,29.89,WSW,239,7.0,7.0,61,0.00,,,0.00,,2013-04-24 00:11:00,
2013-04-23 17:21:00,65.0,51.0,29.89,SW,234,7.0,7.0,61,0.00,,,0.00,,2013-04-24 00:21:00,
2013-04-23 17:32:00,65.0,51.0,29.89,SW,234,7.0,7.0,61,0.00,,,0.00,,2013-04-24 00:32:00,
2013-04-23 17:42:00,65.0,51.0,29.89,SW,234,7.0,7.0,61,0.00,,,0.00,,2013-04-24 00:42:00,
2013-04-23 17:52:00,65.0,51.0,29.89,SW,234,7.0,7.0,61,0.00,,,0.00,,2013-04-24 00:52:00,
2013-04-23 18:01:00,65.0,51.0,29.89,SW,234,7.0,7.0,61,0.00,,,0.00,,2013-04-24 01:01:00,
2013-04-23 18:21:00,63.0,51.0,29.89,SW,225,11.0,11.0,64,0.00,,,0.00,,2013-04-24 01:21:00,
2013-04-23 18:32:00,63.0,51.0,29.89,SW,225,11.0,11.0,64,0.00,,,0.00,,2013-04-24 01:32:00,
2013-04-23 18:42:00,63.0,51.0,29.89,SW,225,11.0,11.0,64,0.00,,,0.00,,2013-04-24 01:42:00,
2013-04-23 18:52:00,63.0,52.0,29.89,SW,228,6.0,6.0,67,0.00,,,0.00,,2013-04-24 01:52:00,
2013-04-23 19:02:00,63.0,52.0,29.89,SW,228,6.0,6.0,67,0.00,,,0.00,,2013-04-24 02:02:00,
2013-04-23 19:13:00,63.0,52.0,29.89,SW,228,6.0,6.0,67,0.00,,,0.00,,2013-04-24 02:13:00,
2013-04-23 19:22:00,61.0,51.0,29.89,SSW,205,4.0,4.0,69,0.00,,,0.00,,2013-04-24 02:22:00,
2013-04-23 19:49:00,61.0,51.0,29.89,SSW,205,4.0,4.0,69,0.00,,,0.00,,2013-04-24 02:49:00,
2013-04-23 19:56:00,61.0,52.0,29.88,WSW,249,1.0,1.0,71,0.00,,,0.00,,2013-04-24 02:56:00,
2013-04-23 20:02:00,61.0,52.0,29.88,WSW,249,1.0,1.0,71,0.00,,,0.00,,2013-04-24 03:02:00,
2013-04-23 20:13:00,61.0,52.0,29.88,WSW,249,1.0,1.0,71,0.00,,,0.00,,2013-04-24 03:13:00,
2013-04-23 20:33:00,60.0,53.0,29.90,WNW,285,4.0,4.0,77,0.00,,,0.00,,2013-04-24 03:33:00,
2013-04-23 20:52:00,60.0,53.0,29.90,WNW,285,4.0,4.0,77,0.00,,,0.00,,2013-04-24 03:52:00,
2013-04-23 20:58:00,58.0,52.0,29.90,West,273,5.0,5.0,80,0.00,,,0.00,,2013-04-24 03:58:00,
2013-04-23 21:02:00,58.0,52.0,29.90,West,273,5.0,5.0,80,0.00,,,0.00,,2013-04-24 04:02:00,
2013-04-23 21:12:00,58.0,52.0,29.90,West,273,5.0,5.0,80,0.00,,,0.00,,2013-04-24 04:12:00,
2013-04-23 21:22:00,58.0,52.0,29.90,West,273,5.0,5.0,80,0.00,,,0.00,,2013-04-24 04:22:00,
2013-04-23 22:02:00,57.0,52.0,29.91,West,271,1.0,1.0,84,0.00,,,0.00,,2013-04-24 05:02:00,
2013-04-23 22:22:00,57.0,52.0,29.91,West,271,1.0,1.0,84,0.00,,,0.00,,2013-04-24 05:22:00,
2013-04-23 22:32:00,57.0,52.0,29.91,West,271,1.0,1.0,84,0.00,,,0.00,,2013-04-24 05:32:00,
2013-04-23 22:42:00,57.0,52.0,29.91,West,271,1.0,1.0,84,0.00,,,0.00,,2013-04-24 05:42:00,
2013-04-23 22:52:00,57.0,52.0,29.91,West,271,1.0,1.0,84,0.00,,,0.00,,2013-04-24 05:52:00,
2013-04-23 23:52:00,56.0,52.0,29.93,SW,230,5.0,5.0,85,0.00,,,0.00,,2013-04-24 06:52:00,